Track COSMOS 2517 (GEO-IK) now! 10-day predictions COSMOS 2517 (GEO-IK) is classified as:
1 41579U 16034A 26252.24878917 -.00000000 00000-0 37666-4 0 9996 2 41579 99.1917 259.4504 0001155 87.6861 272.4427 13.85909884519278